This is the latest recevied weather packets stored in our database for station/object W1REE. If no packets are shown the sender has not sent any weather packets the latest 10 day(s).
| Time | Temp. | Humidity | Pressure | Rain* | Wind** | Luminosity | Snow |
|---|---|---|---|---|---|---|---|
| 1777454481 | 5.56° C | 81% | 1023 hPa | 0 mm | - | 0 W/m² | - |
| 1777454178 | 5.56° C | 79% | 1023 hPa | 0 mm | - | 0 W/m² | - |
| 1777453875 | 5.56° C | 78% | 1023 hPa | 0 mm | - | 0 W/m² | - |
| 1777453573 | 5.56° C | 78% | 1023 hPa | 0 mm | - | 0 W/m² | - |
| 1777453269 | 5.56° C | 77% | 1023 hPa | 0 mm | - | 0 W/m² | - |
| 1777452966 | 5.56° C | 78% | 1023.1 hPa | 0 mm | - | 0 W/m² | - |
| 1777452359 | 5.56° C | 80% | 1023.2 hPa | 0 mm | - | 0 W/m² | - |
| 1777452055 | 5.56° C | 84% | 1023.1 hPa | 0 mm | - | 0 W/m² | - |
| 1777451751 | 5.56° C | 86% | 1023.2 hPa | 0 mm | - | 0 W/m² | - |
| 1777451447 | 5° C | 86% | 1023.2 hPa | 0 mm | - | 0 W/m² | - |
| 1777451142 | 5° C | 87% | 1023.4 hPa | 0 mm | - | 0 W/m² | - |
| 1777450838 | 5° C | 87% | 1023.4 hPa | 0 mm | - | 0 W/m² | - |
| 1777450533 | 5° C | 88% | 1023.4 hPa | 0 mm | - | 0 W/m² | - |
| 1777450231 | 5° C | 87% | 1023.2 hPa | 0 mm | - | 0 W/m² | - |
| 1777449927 | 5° C | 87% | 1023.2 hPa | 0 mm | - | 0 W/m² | - |
| 1777449624 | 5° C | 88% | 1023.4 hPa | 0 mm | - | 0 W/m² | - |
| 1777449319 | 5° C | 89% | 1023.2 hPa | 0 mm | - | 0 W/m² | - |
| 1777449015 | 5° C | 90% | 1023.4 hPa | 0 mm | - | 0 W/m² | - |
| 1777448409 | 4.44° C | 88% | 1023.4 hPa | 0 mm | - | 0 W/m² | - |
| 1777448105 | 5° C | 88% | 1023.7 hPa | 0 mm | - | 0 W/m² | - |
| 1777447801 | 5° C | 87% | 1023.5 hPa | 0 mm | - | 0 W/m² | - |
| 1777447497 | 5° C | 87% | 1023.7 hPa | 0 mm | - | 0 W/m² | - |
| 1777447193 | 5° C | 86% | 1023.6 hPa | 0 mm | - | 0 W/m² | - |
| 1777446892 | 5° C | 87% | 1023.7 hPa | 0 mm | - | 0 W/m² | - |
| 1777446588 | 5° C | 86% | 1023.7 hPa | 0 mm | - | 0 W/m² | - |
* Rain latest hour (hover to see other rain measurements)
** Current wind speed in m/s (hover to see current wind gust speed)